This demonstration page uses our WeatherBlox Daily Observations layout. Learn more.

Left ArrowRight Arrow

40.92945, -100.16068

Hourly Observations for April 15, 2015

Temp ( °F °C ) Dew Point ( °F °C ) Humidity (%) Winds ( mph kmh ) Pressure ( in mb ) Visibility ( mi km ) Precip ( " mm )
12:15 am 00:15 Clear 49 9.6 27 -2.6 43 43 SE 9 15 30.00 1016 10 16 N/A
12:35 am 00:35 Clear 48 9 28 -2.2 46 46 SE 8 13 30.03 1017 10 16 N/A
12:55 am 00:55 Clear 48 9 28 -2.2 46 46 SE 10 17 30.00 1016 10 16 N/A
1:15 am 01:15 Clear 47 8.5 28 -2 48 48 SE 9 15 30.00 1016 10 16 N/A
1:35 am 01:35 Clear 46 8 29 -1.6 51 51 SSE 10 17 30.00 1016 10 16 N/A
1:55 am 01:55 Clear 46 7.7 29 -1.5 53 53 SE 9 15 30.00 1016 10 16 N/A
2:15 am 02:15 Clear 45 7.3 30 -1.1 56 56 SSE 9 15 30.00 1016 10 16 N/A
2:35 am 02:35 Clear 45 7.2 31 -0.8 57 57 SE 10 17 30.00 1016 10 16 N/A
2:55 am 02:55 Clear 46 7.5 31 -0.8 56 56 SE 10 17 30.00 1016 10 16 N/A
3:15 am 03:15 Clear 43 6.3 31 -0.6 62 62 ESE 9 15 30.03 1017 10 16 N/A
3:35 am 03:35 Clear 42 5.8 31 -0.6 64 64 SE 8 13 30.03 1017 10 16 N/A
3:55 am 03:55 Clear 42 5.5 31 -0.5 66 66 SE 9 15 30.00 1016 10 16 N/A
4:15 am 04:15 Clear 43 6 32 -0.1 65 65 SE 7 11 30.00 1016 10 16 N/A
4:35 am 04:35 Clear 42 5.5 32 undefined 68 68 SE 6 9 30.00 1016 10 16 N/A
4:55 am 04:55 Clear 40 4.2 32 undefined 74 74 SE 8 13 30.00 1016 10 16 N/A
5:15 am 05:15 Clear 41 5.1 32 0.1 70 70 SE 10 17 29.97 1015 10 16 N/A
5:35 am 05:35 Clear 42 5.5 33 0.4 70 70 SE 10 17 29.94 1014 10 16 N/A
5:55 am 05:55 Clear 41 4.8 32 undefined 71 71 ESE 9 15 29.97 1015 10 16 N/A
6:15 am 06:15 Clear 39 4 32 0.1 76 76 ESE 9 15 29.97 1015 10 16 N/A
6:35 am 06:35 Clear 40 4.2 33 0.4 77 77 ESE 9 15 29.97 1015 10 16 N/A
6:55 am 06:55 Clear 40 4.4 33 0.5 76 76 SE 9 15 29.97 1015 10 16 N/A
7:15 am 07:15 Sunny 39 3.8 33 0.5 79 79 ESE 9 15 29.97 1015 10 16 N/A
7:35 am 07:35 Sunny 40 4.4 34 0.9 78 78 SE 7 11 29.97 1015 10 16 N/A
7:55 am 07:55 Sunny 41 5 34 1.2 77 77 ESE 7 11 29.97 1015 10 16 N/A
8:15 am 08:15 Sunny 42 5.6 35 1.6 76 76 ESE 10 17 29.94 1014 10 16 N/A
8:35 am 08:35 Sunny 44 6.6 36 2.1 73 73 ESE 14 22 29.94 1014 10 16 N/A
8:55 am 08:55 Sunny 47 8.3 38 3.2 71 71 SE 12 19 29.94 1014 10 16 N/A
9:15 am 09:15 Sunny 50 10.1 39 4.1 67 67 SE 14 22 29.91 1013 10 16 N/A
9:35 am 09:35 Sunny 53 11.5 40 4.4 62 62 SE 14 22 29.91 1013 10 16 N/A
9:55 am 09:55 Sunny 55 13 40 4.6 57 57 SSE 18 30 29.88 1012 10 16 N/A
10:15 am 10:15 Sunny 57 13.8 41 4.9 55 55 SE 15 24 29.88 1012 10 16 N/A
10:35 am 10:35 Sunny 58 14.5 40 4.7 52 52 SSE 24 39 29.88 1012 10 16 N/A
10:55 am 10:55 Partly Cloudy 59 14.9 40 4.5 50 50 SSE 24 39 29.88 1012 10 16 N/A
11:15 am 11:15 Cloudy 59 15.1 41 5.1 51 51 SSE 23 37 29.88 1012 10 16 N/A
11:35 am 11:35 Cloudy 60 15.4 43 5.9 53 53 SSE 22 35 29.88 1012 10 16 N/A
11:55 am 11:55 Partly Cloudy 62 16.5 41 5 47 47 SSE 24 39 29.85 1011 10 16 N/A
12:15 pm 12:15 Partly Cloudy 62 16.9 41 5.2 46 46 SSE 24 39 29.83 1010 10 16 N/A
12:35 pm 12:35 Partly Cloudy 63 17.2 42 5.5 46 46 SSE 25 41 29.83 1010 10 16 N/A
12:55 pm 12:55 Partly Cloudy 63 17.2 42 5.7 47 47 SE 21 33 29.83 1010 10 16 N/A
1:15 pm 13:15 Partly Cloudy 64 17.9 42 5.8 45 45 SE 23 37 29.83 1010 10 16 N/A
1:35 pm 13:35 Sunny 64 17.8 42 5.8 46 46 SE 17 28 29.83 1010 10 16 N/A
1:55 pm 13:55 Partly Cloudy 64 17.8 43 6.1 46 46 SE 18 30 29.80 1009 10 16 N/A
2:15 pm 14:15 Partly Cloudy 65 18.3 43 6 45 45 SE 23 37 29.80 1009 10 16 N/A
2:35 pm 14:35 Partly Cloudy 65 18.6 43 6.1 44 44 SE 24 39 29.74 1007 10 16 N/A
2:55 pm 14:55 Partly Cloudy 67 19.3 44 6.4 43 43 SSE 22 35 29.74 1007 10 16 N/A
3:15 pm 15:15 Partly Cloudy 66 19 44 6.4 44 44 SE 18 30 29.74 1007 10 16 N/A
3:35 pm 15:35 Partly Cloudy 66 18.7 44 6.5 45 45 SE 22 35 29.74 1007 10 16 N/A
3:55 pm 15:55 Partly Cloudy 67 19.5 44 6.7 44 44 SE 22 35 29.74 1007 10 16 N/A
4:15 pm 16:15 Partly Cloudy 66 19 45 7.2 46 46 SE 23 37 29.74 1007 10 16 N/A
4:35 pm 16:35 Partly Cloudy 66 18.8 45 7.1 47 47 SE 17 28 29.74 1007 10 16 N/A
4:55 pm 16:55 Mostly Cloudy 65 18.5 46 7.5 49 49 SE 21 33 29.74 1007 10 16 N/A
5:15 pm 17:15 Mostly Cloudy 64 17.6 45 7.3 51 51 SE 18 30 29.77 1008 10 16 N/A
5:35 pm 17:35 Mostly Cloudy 65 18.3 46 7.6 50 50 ESE 22 35 29.77 1008 10 16 N/A
5:55 pm 17:55 Mostly Cloudy 63 17.4 46 8 54 54 SE 20 31 29.77 1008 10 16 N/A
6:15 pm 18:15 Partly Cloudy 62 16.7 46 8 57 57 SE 22 35 29.77 1008 10 16 N/A
6:35 pm 18:35 Partly Cloudy 63 17.3 47 8.1 55 55 ESE 23 37 29.77 1008 10 16 N/A
6:55 pm 18:55 Partly Cloudy 62 16.6 46 7.8 56 56 SE 22 35 29.77 1008 10 16 N/A
7:15 pm 19:15 Mostly Cloudy 62 16.5 46 7.7 56 56 SE 16 26 29.77 1008 10 16 N/A
7:35 pm 19:35 Cloudy 61 16.2 46 8 59 59 SE 16 26 29.77 1008 10 16 N/A
7:55 pm 19:55 Cloudy 61 15.9 46 8 60 60 SE 16 26 29.77 1008 10 16 N/A
8:15 pm 20:15 Cloudy 60 15.5 46 8 61 61 SE 15 24 29.77 1008 10 16 N/A
8:35 pm 20:35 Cloudy with Nearby Thunderstorms 59 15 47 8.1 64 64 SE 17 28 29.80 1009 10 16 N/A
8:55 pm 20:55 Partly Cloudy with Nearby Thunderstorms 58 14.2 47 8.2 67 67 SE 16 26 29.83 1010 10 16 N/A
9:15 pm 21:15 Partly Cloudy 56 13.6 47 8.2 70 70 ESE 13 20 29.85 1011 10 16 N/A
9:35 pm 21:35 Partly Cloudy 56 13.5 47 8.4 71 71 SE 10 17 29.88 1012 10 16 N/A
9:55 pm 21:55 Mostly Cloudy 56 13.6 47 8.6 72 72 SE 10 17 29.88 1012 10 16 N/A
10:15 pm 22:15 Cloudy 57 14 48 9 72 72 SE 10 17 29.91 1013 10 16 N/A
10:35 pm 22:35 Cloudy 57 14 48 9 72 72 SE 9 15 29.94 1014 10 16 N/A
10:55 pm 22:55 Cloudy 57 14 48 9 72 72 SE 9 15 29.94 1014 10 16 N/A
11:15 pm 23:15 Cloudy 57 14 48 9 72 72 SE 10 17 29.94 1014 10 16 N/A
11:35 pm 23:35 Cloudy 56 13.6 48 9.1 74 74 SE 8 13 29.94 1014 10 16 N/A
11:55 pm 23:55 Mostly Cloudy 56 13.5 48 9.1 75 75 SE 10 17 29.91 1013 10 16 N/A

Powered by AerisWeather